Weather History for KCUT - June, 2008

Nearest airport to Hot Springs, SD.

See history from more local stations
Change the Weather History Date:

Monday, June 16, 2008

  Actual Average Record
Temperature  
Mean Temperature 52 °F 59 °F  
Max Temperature 61 °F 71 °F 89 °F (1989)
Min Temperature 44 °F 47 °F 27 °F (1966)
Degree Days  
Heating Degree Days 13 7  
Month to date heating degree days 152  
Since 1 June heating degree days 152  
Since 1 July heating degree days 8321  
Cooling Degree Days 0 1  
Month to date cooling degree days 4  
Year to date cooling degree days 5  
Since 1 June cooling degree days 4  
Growing Degree Days 2 (Base 50)    
Moisture  
Dew Point 45 °F    
Average Humidity 76    
Maximum Humidity 93    
Minimum Humidity 63    
Precipitation  
Precipitation 0.17 in 0.10 in 0.84 in (1956)
Month to date precipitation 1.89  
Year to date precipitation 9.00  
Sea Level Pressure  
Sea Level Pressure 30.14 in    
Wind  
Wind Speed 5 mph (ESE)    
Max Wind Speed 12 mph    
Max Gust Speed 20 mph    
Visibility 10 miles    
Events Rain    
T = Trace of Precipitation, MM = Missing Value Source: NWS Daily Summary

Daily Weather History Graph

Daily Weather History Graph

Search for Another Location

Airport or City:

Trip Planner

Search our weather history database for the weather conditions in past years. The results will help you decide how hot, cold, wet, or windy it might be!

Date:

Astronomy

Jun. 16, 2008 Rise Set
Actual Time 5:12 AM MDT 8:38 PM MDT
Civil Twilight 4:35 AM MDT 9:14 PM MDT
Nautical Twilight 3:48 AM MDT 10:02 PM MDT
Astronomical Twilight 2:49 AM MDT 11:01 PM MDT
Moon 7:26 PM MDT (6/16) 3:13 AM MDT (6/16)
Length of Visible Light 16h 38m
Length of Day
15h 26m
Waxing Gibbous, 96% of the Moon is Illuminated
Jun 16
Waxing Gibbous
Jun 18
Full
Jun 26
Last Quarter
Jul 2
New
Jul 9
First Quarter

Hourly Weather History & Observations

Time (MDT) Temp. Windchill Dew Point Humidity Pressure Visibility Wind Dir Wind Speed Gust Speed Precip Events Conditions
12:53 AM 46.9 °F - 39.0 °F 74% 30.12 in 10.0 mi NNE 4.6 mph - 0.00 in Rain Light Rain
1:53 AM 48.0 °F - 39.0 °F 71% 30.11 in 10.0 mi Calm Calm - 0.00 in   Mostly Cloudy
2:53 AM 44.1 °F 41.5 °F 37.9 °F 79% 30.11 in 10.0 mi North 4.6 mph - N/A   Clear
3:53 AM 46.9 °F - 39.0 °F 74% 30.09 in 10.0 mi NE 3.5 mph - N/A   Overcast
4:53 AM 46.0 °F - 39.0 °F 76% 30.10 in 10.0 mi Calm Calm - N/A   Overcast
5:53 AM 48.9 °F - 39.9 °F 71% 30.08 in 10.0 mi Variable 3.5 mph - 0.00 in Rain Light Rain
6:53 AM 46.9 °F - 43.0 °F 86% 30.09 in 10.0 mi SE 3.5 mph - 0.02 in   Overcast
7:25 AM 48.2 °F - 42.8 °F 82% 30.27 in 7.0 mi NNE 10.4 mph 19.6 mph 0.03 in Rain Heavy Rain
7:43 AM 44.6 °F 42.2 °F 41.0 °F 87% 30.27 in 3.0 mi NNE 4.6 mph - 0.13 in Rain Rain
7:53 AM 44.1 °F 40.8 °F 41.0 °F 89% 30.18 in 5.0 mi ENE 5.8 mph - 0.14 in Rain Rain
8:53 AM 46.0 °F - 42.1 °F 86% 30.16 in 10.0 mi Calm Calm - 0.01 in   Overcast
9:53 AM 48.0 °F - 43.0 °F 83% 30.15 in 10.0 mi Variable 4.6 mph - N/A   Overcast
10:44 AM 51.8 °F - 44.6 °F 76% 30.23 in 10.0 mi Variable 4.6 mph - N/A   Overcast
10:53 AM 50.0 °F - 43.0 °F 77% 30.15 in 10.0 mi Variable 4.6 mph - N/A   Overcast
11:53 AM 53.1 °F - 44.1 °F 71% 30.13 in 10.0 mi South 9.2 mph - N/A   Overcast
12:06 PM 53.6 °F - 44.6 °F 72% 30.23 in 10.0 mi Variable 5.8 mph - N/A   Overcast
12:44 PM 53.6 °F - 44.6 °F 72% 30.22 in 10.0 mi Variable 6.9 mph - N/A   Overcast
12:53 PM 54.0 °F - 44.1 °F 69% 30.13 in 10.0 mi Variable 5.8 mph - N/A   Overcast
1:06 PM 57.2 °F - 44.6 °F 63% 30.22 in 10.0 mi SSW 8.1 mph - N/A   Overcast
1:16 PM 55.4 °F - 44.6 °F 67% 30.22 in 10.0 mi Variable 6.9 mph 16.1 mph N/A   Overcast
1:53 PM 57.0 °F - 46.0 °F 67% 30.10 in 10.0 mi SSE 11.5 mph 18.4 mph N/A   Overcast
2:26 PM 55.4 °F - 46.4 °F 72% 30.20 in 10.0 mi South 8.1 mph 18.4 mph N/A   Overcast
2:53 PM 55.9 °F - 46.9 °F 72% 30.11 in 10.0 mi SSE 6.9 mph 16.1 mph N/A   Overcast
3:53 PM 57.0 °F - 48.0 °F 72% 30.09 in 10.0 mi Variable 4.6 mph - N/A   Overcast
4:53 PM 59.0 °F - 48.9 °F 69% 30.07 in 10.0 mi SSE 10.4 mph - N/A   Mostly Cloudy
5:07 PM 60.8 °F - 50.0 °F 68% 30.18 in 10.0 mi SSE 8.1 mph - N/A   Mostly Cloudy
5:17 PM 60.8 °F - 50.0 °F 68% 30.18 in 10.0 mi SE 8.1 mph - N/A   Mostly Cloudy
5:53 PM 59.0 °F - 50.0 °F 72% 30.06 in 10.0 mi SE 10.4 mph - N/A   Overcast
6:53 PM 59.0 °F - 50.0 °F 72% 30.06 in 10.0 mi SE 9.2 mph - N/A   Overcast
7:53 PM 57.9 °F - 50.0 °F 75% 30.09 in 10.0 mi East 5.8 mph - N/A   Overcast
8:53 PM 55.9 °F - 48.9 °F 77% 30.09 in 10.0 mi ESE 6.9 mph - N/A   Mostly Cloudy
9:12 PM 53.6 °F - 48.2 °F 82% 30.18 in 10.0 mi East 3.5 mph - N/A   Partly Cloudy
9:53 PM 54.0 °F - 48.9 °F 83% 30.11 in 10.0 mi Calm Calm - N/A   Partly Cloudy
10:53 PM 48.9 °F - 46.0 °F 90% 30.11 in 9.0 mi NNW 3.5 mph - N/A   Clear
11:53 PM 48.9 °F - 46.9 °F 93% 30.09 in 10.0 mi NW 3.5 mph - N/A   Clear